METAR LOCAUX

2020/05/25 10:00 LFST 251000Z AUTO 35005KT 270V070 9999 SCT035 SCT041 BKN076 19/10 Q1033 NOSIG
2020/05/25 10:20 EDSB 251020Z 06003KT 010V090 9999 FEW024 SCT038 18/10 Q1033
2020/05/25 10:00 LFGA 251000Z AUTO 02007KT 320V070 9999 FEW035 BKN080 19/10 Q1032
www.noaa.gov

Ne pas utiliser pour préparer ou effectuer un vol: Utilisez la documentation officielle disponible sur aviation.meteo.fr (Aéroweb)


"Le soleil du matin ne dure pas forcément toute la journée."

Animation satellite IR

Meteociel.fr

"Derrière chaque nuage se cache le ciel bleu."

Radar pluie

Infoclimat.fr

"Si tu veux l’arc-en-ciel, tu dois supporter la pluie."
Dolly Parton

Nébulosité (octas)

Meteociel.fr

"Le soleil est souvent obscurci par les nuages et la raison par les passions."
Démophile

Impacts de foudre

www.meteo60.fr

"Celui que frappe la foudre n'entend pas le tonnerre."

Vigilance météo

vigilance-meteo.fr

"Tout nuage n'enfante pas une tempête."
William Shakespeare

TAF locaux

2020/05/25 06:21 TAF LFST 250500Z 2506/2606 36004KT 9999 SCT050
2020/05/25 06:27 TAF EDSB 250500Z 2506/2606 22004KT CAVOK BECMG 2508/2511 34005KT BECMG 2518/2521 VRB03KT
www.noaa.gov

Ne pas utiliser pour préparer ou effectuer un vol: Utilisez la documentation officielle disponible sur aviation.meteo.fr (Aéroweb)


"Les jours où le ciel est gris, le soleil n'a pas disparu à tout jamais."
Arnaud Desjardins

Prévisions 7 jours


Meteoblue.com

"Quand les crapauds chantent, le beau temps s'avance !"